Regional Weather Roundup
Issued by NWS

Home | Current Version | Previous Version | Graphics & Text | Print | Product List | Glossary On
Versions: 1 2 3 4 5 6 7 8 9 10 11 12 13 14 15 16 17 18 19 20 21 22 23 24 25 26 27 28 29 30 31 32 33 34 35 36 37 38 39 40 41 42 43 44 45 46 47 48 49 50
000
ASUS43 KDMX 210707
RWRIA

WEATHER ROUNDUP FOR IOWA
NATIONAL WEATHER SERVICE DES MOINES IA
200 AM CDT THU AUG 21 2014

NOTE: "FAIR" INDICATES FEW OR NO CLOUDS BELOW 12,000 FEET WITH NO
SIGNIFICANT WEATHER AND/OR OBSTRUCTIONS TO VISIBILITY.

* - THESE STATIONS ARE NOT NWS STATIONS...THUS NOT UNDER NWS
QUALITY CONTROL.  THEY ALSO DO NOT REPORT WEATHER SUCH
AS PRECIPITATION OR FOG.

IAZ001>003-012>014-020>022-031>034-043>046-210800-
   NORTHWEST IOWA

CITY           SKY/WX    TMP DP  RH WIND       PRES   REMARKS
CARROLL *      MOCLDY    75  73  94 S9        29.81F
CHEROKEE *     CLEAR     73  73 100 S7        29.77S
DENISON *      CLEAR     77  73  88 S14G21    29.78F
LE MARS *      CLEAR     75  73  94 S8G14     29.73F
ORANGE CITY *  CLEAR     77  72  83 S10G16    29.74F
SHELDON *      PTCLDY    73  73 100 SE15      29.74F
SIOUX CITY     CLOUDY    78  73  84 S9G17     29.72F HX  81
SPENCER        PTCLDY    74  71  91 S12       29.78F
STORM LAKE *   CLEAR     72  72 100 SE9       29.80F
$$

IAZ055>058-069>071-079>083-090>094-210800-
   SOUTHWEST IOWA

CITY           SKY/WX    TMP DP  RH WIND       PRES   REMARKS
ATLANTIC *     MOCLDY    79  73  83 S9G16     29.82F HX  82
AUDUBON *      CLEAR     79  75  89 S9        29.84S HX  82
CLARINDA *     PTCLDY    79  72  78 S8G15     29.85S HX  82
COUNCIL BLFS *   N/A     77  75  94 S10G16    29.79F
CRESTON *      PTCLDY    77  72  83 S13       29.87S
HARLAN  *      CLEAR     77  73  88 S12       29.84F
LAMONI         CLEAR     77  71  82 S9        29.88S
RED OAK *      CLEAR     79  72  78 S12       29.82F HX  82
SHENANDOAH *   CLEAR     79  72  78 S12       29.82F HX  82
$$

IAZ047>049-059>061-072>074-084-210800-
   CENTRAL IOWA

CITY           SKY/WX    TMP DP  RH WIND       PRES   REMARKS
AMES           PTCLDY    73  72  96 SE8       29.84F
ANKENY *       PTCLDY    73  73 100 SE5       29.84S
CHARITON *     PTCLDY    75  73  94 S9        29.87F
DES MOINES     PTCLDY    77  72  84 S7        29.84S
GRINNELL*      PTCLDY    73  72  94 SE7       29.88F
KNOXVILLE *    CLEAR     77  72  83 S8        29.85F
MARSHALLTOWN   PTCLDY    71  70  96 E9        29.86F
PELLA *        CLEAR     73  73 100 SE7       29.87F
PERRY *          N/A     72  72 100 SE6       29.83F
$$

IAZ004>006-015-016-023>025-035-036-210800-
   NORTH CENTRAL IOWA

CITY           SKY/WX    TMP DP  RH WIND       PRES   REMARKS
ALGONA *       CLEAR     72  70  94 SE12G18   29.82F
CLARION *      MOCLDY    70  70 100 SE10      29.84F
ESTHERVILLE    MOCLDY    70  69  97 SE12      29.78F
FORT DODGE *   CLEAR     73  72  94 SE7       29.83F
MASON CITY     CLOUDY    69  68  96 SE8       29.88F
FOREST CITY *  CLOUDY    70  70 100 SE8       29.86S FOG
IOWA FALLS *   MOCLDY    68  68 100 E5        29.87F FOG
$$

IAZ007>011-017>019-026>030-037>042-050>054-066-210800-
   NORTHEAST IOWA

CITY           SKY/WX    TMP DP  RH WIND       PRES   REMARKS
CEDAR RAPIDS   MOCLDY    69  69 100 E6        29.89F FOG
CHARLES CITY * CLOUDY    70  68  94 SE10      29.89F
CLINTON *      CLOUDY    72  66  83 SE7       29.95F
DECORAH *      CLOUDY    70  66  88 SE6       29.90F
DUBUQUE        CLOUDY    70  66  87 SE7       29.93F
MONTICELLO *   MOCLDY    70  70 100 CALM      29.91F
OELWEIN *      CLOUDY    70  70 100 SE12      29.90F
WATERLOO       MOCLDY    70  68  93 SE8       29.87F
$$

IAZ064-065-067-068-078-210800-
   EAST CENTRAL IOWA

CITY           SKY/WX    TMP DP  RH WIND       PRES   REMARKS
DAVENPORT      MOCLDY    70  68  93 E6        29.93F
IOWA CITY      MOCLDY    72  71  97 SE3       29.90F
MT. PLEASANT *   N/A     73  73 100 SE5       29.91R FOG
MUSCATINE *    CLEAR     70  68  94 CALM      29.90F
QUAD CITIES    PTCLDY    69  67  93 E7        29.91F
$$

IAZ062-063-075>077-085>089-095>099-210800-
   SOUTHEAST IOWA

CITY           SKY/WX    TMP DP  RH WIND       PRES   REMARKS
BURLINGTON     LGT RAIN  75  73  93 S9        29.91F
FAIRFIELD *    MOCLDY    73  73 100 S5        29.90R
FORT MADISON * CLEAR     75  75 100 S5        29.92S
KEOKUK *       CLEAR     77  72  83 S13G21    29.90S
OSKALOOSA *      N/A     73  72  94 SE5       29.89R
CENTERVILLE *  CLEAR     75  73  94 S7        29.91S
OTTUMWA        PTCLDY    76  72  87 S6        29.88S
WASHINGTON *   CLOUDY    73  73 100 S7        29.89F FOG
$$

ABBREVIATIONS USED IN REMARKS
   TC - TEMPERATURES IN CELSIUS
  WCI - WIND CHILL INDEX
   HX - HEAT INDEX
  VSB - VISIBILITY
$$




USA.gov is the U.S. government's official web portal to all federal, state and local government web resources and services.